Location: Archemont
(49.1579°N, 1.7598°E)
Time: 06:31:27
(UTC+00:00)

S-56A Canister/Altair - Pass Details

Date: 21 April 2024
Orbit: 638 x 2488 km, 38.9° (Epoch: 17 May)

Event Time Altitude Azimuth Distance (km) Brightness Sun altitude
Rises 22:27:51 0° 268° (W) 4,292 11.6 -25.9°
Reaches altitude 10° 22:31:41 10° 250° (WSW) 3,640 11.0 -26.1°
Enters shadow 22:37:13 18° 214° (SW) 3,473 10.5 -26.4°
Maximum altitude 22:37:29 18° 212° (SSW) 3,490 - -26.4°
Drops below altitude 10° 22:44:33 10° 176° (S) 4,551 - -26.8°
Sets 22:50:19 0° 161° (SSE) 5,843 - -27.1°
